DBPTI EDDH-EIDW

Flight info

Callsign DBPTI
Flight time 1h 29m
Altitude 43000
Route WSN4B/23 WSN N125 ITMIZ DCT PARYD DCT ANDIK DCT PREXA DCT RAVLO Y70 OTBED L60 PENIL UL28 LELDO M145 BAGSO BAGSO4L
Aircraft C700/M-SBDGHM1RWXY/LB2

Departure

Time 2026-05-01 13:57
Airport Hamburg Helmut Schmidt Airport (EDDH)

Arrival

Time 2026-05-01 15:27
Airport Dublin Airport (EIDW)
Time Latitude Longitude Altitude Speed Heading
2026-05-01 13:49 53.62697 9.98920 45 ft 0 kts 63°
2026-05-01 13:51 53.62697 9.98919 45 ft 0 kts 63°
2026-05-01 13:54 53.62704 9.98924 45 ft 3 kts
2026-05-01 13:55 53.62729 9.98850 44 ft 11 kts 324°
2026-05-01 13:55 53.62804 9.98796 45 ft 9 kts 15°
2026-05-01 13:55 53.62855 9.98891 45 ft 13 kts 50°
2026-05-01 13:55 53.62920 9.99021 45 ft 16 kts 50°
2026-05-01 13:56 53.62981 9.99143 45 ft 13 kts 51°
2026-05-01 13:56 53.63062 9.99234 45 ft 13 kts 347°
2026-05-01 13:56 53.63083 9.99118 43 ft 11 kts 258°
2026-05-01 13:56 53.63081 9.98972 47 ft 14 kts 275°
2026-05-01 13:57 53.63056 9.98870 44 ft 6 kts 225°
2026-05-01 13:57 53.62996 9.98745 45 ft 48 kts 231°
2026-05-01 13:57 53.62338 9.97407 285 ft 158 kts 229°
2026-05-01 13:57 53.61635 9.95797 1416 ft 181 kts 232°
2026-05-01 13:58 53.60843 9.94041 2717 ft 190 kts 227°
2026-05-01 13:58 53.59893 9.92315 3923 ft 210 kts 222°
2026-05-01 13:58 53.58926 9.90465 5674 ft 208 kts 227°
2026-05-01 13:58 53.58001 9.88533 7338 ft 216 kts 227°
2026-05-01 13:59 53.57059 9.86556 8841 ft 224 kts 230°
2026-05-01 13:59 53.56319 9.84138 10209 ft 247 kts 245°
2026-05-01 13:59 53.55711 9.81251 11215 ft 275 kts 246°
2026-05-01 13:59 53.55025 9.78083 12236 ft 302 kts 246°
2026-05-01 14:00 53.54266 9.74633 13443 ft 321 kts 246°
2026-05-01 14:00 53.53490 9.71086 15028 ft 327 kts 246°
2026-05-01 14:00 53.52688 9.67454 16446 ft 335 kts 247°
2026-05-01 14:00 53.51863 9.63731 17878 ft 343 kts 247°
2026-05-01 14:01 53.51023 9.59926 19178 ft 351 kts 248°
2026-05-01 14:01 53.50164 9.56040 20305 ft 358 kts 248°
2026-05-01 14:01 53.49287 9.52084 21352 ft 365 kts 248°
2026-05-01 14:01 53.48403 9.48111 22380 ft 371 kts 248°
2026-05-01 14:02 53.47491 9.44020 23396 ft 377 kts 248°
2026-05-01 14:02 53.46563 9.39861 24294 ft 384 kts 248°
2026-05-01 14:02 53.45620 9.35640 25166 ft 388 kts 248°
2026-05-01 14:02 53.44666 9.31382 26022 ft 393 kts 248°
2026-05-01 14:03 53.43697 9.27062 26816 ft 398 kts 247°
2026-05-01 14:03 53.42711 9.22683 27613 ft 404 kts 248°
2026-05-01 14:03 53.41718 9.18261 28440 ft 408 kts 247°
2026-05-01 14:03 53.40707 9.13786 29249 ft 412 kts 247°
2026-05-01 14:04 53.39681 9.09270 29998 ft 418 kts 247°
2026-05-01 14:04 53.38670 9.04675 30676 ft 423 kts 252°
2026-05-01 14:04 53.38151 8.99802 31355 ft 427 kts 263°
2026-05-01 14:04 53.38013 8.96503 31793 ft 430 kts 266°
2026-05-01 14:05 53.37888 8.89761 32605 ft 435 kts 267°
2026-05-01 14:05 53.37666 8.84679 33193 ft 438 kts 263°
2026-05-01 14:05 53.37284 8.79612 33880 ft 438 kts 262°
2026-05-01 14:05 53.36946 8.74558 34667 ft 435 kts 266°
2026-05-01 14:06 53.36705 8.69521 35301 ft 433 kts 266°
2026-05-01 14:06 53.36455 8.64510 35963 ft 431 kts 265°
2026-05-01 14:06 53.36152 8.59579 36572 ft 429 kts 264°
2026-05-01 14:06 53.35836 8.54613 37118 ft 428 kts 265°
2026-05-01 14:07 53.35552 8.49672 37707 ft 425 kts 266°
2026-05-01 14:07 53.35278 8.44763 38290 ft 422 kts 265°
2026-05-01 14:07 53.34986 8.39874 38717 ft 422 kts 265°
2026-05-01 14:08 53.34389 8.30111 39427 ft 421 kts 265°
2026-05-01 14:08 53.34097 8.25245 39766 ft 419 kts 265°
2026-05-01 14:08 53.33801 8.20374 39997 ft 421 kts 264°
2026-05-01 14:08 53.33497 8.15489 40217 ft 422 kts 265°
2026-05-01 14:09 53.33192 8.10601 40547 ft 421 kts 265°
2026-05-01 14:09 53.32890 8.05731 40814 ft 421 kts 265°
2026-05-01 14:09 53.32589 8.00920 41030 ft 422 kts 264°
2026-05-01 14:09 53.32278 7.96028 41233 ft 424 kts 264°
2026-05-01 14:10 53.31964 7.91121 41516 ft 423 kts 264°
2026-05-01 14:10 53.31651 7.86232 41790 ft 422 kts 264°
2026-05-01 14:10 53.31337 7.81340 41966 ft 424 kts 264°
2026-05-01 14:10 53.31017 7.76431 42184 ft 425 kts 264°
2026-05-01 14:11 53.30695 7.71522 42418 ft 425 kts 264°
2026-05-01 14:11 53.30049 7.61719 42948 ft 423 kts 264°
2026-05-01 14:11 53.29720 7.56796 42926 ft 429 kts 264°
2026-05-01 14:12 53.29052 7.46840 42952 ft 438 kts 264°
2026-05-01 14:12 53.28353 7.36607 42951 ft 448 kts 264°
2026-05-01 14:13 53.27755 7.27942 42956 ft 454 kts 264°
2026-05-01 14:13 53.26890 7.15545 42949 ft 464 kts 263°
2026-05-01 14:14 53.26127 7.04786 42945 ft 468 kts 263°
2026-05-01 14:14 53.25356 6.94034 42944 ft 470 kts 263°
2026-05-01 14:15 53.24568 6.83203 42926 ft 470 kts 263°
2026-05-01 14:15 53.23770 6.72383 42924 ft 469 kts 263°
2026-05-01 14:16 53.23097 6.63337 42925 ft 468 kts 263°
2026-05-01 14:16 53.22289 6.52623 42917 ft 466 kts 263°
2026-05-01 14:17 53.21473 6.41915 42913 ft 465 kts 263°
2026-05-01 14:17 53.20646 6.31212 42915 ft 465 kts 263°
2026-05-01 14:18 53.19811 6.20515 42911 ft 465 kts 263°
2026-05-01 14:18 53.18963 6.09793 42924 ft 466 kts 262°
2026-05-01 14:19 53.18106 5.99084 42921 ft 466 kts 262°
2026-05-01 14:19 53.17242 5.88409 42923 ft 464 kts 262°
2026-05-01 14:20 53.15933 5.72461 42925 ft 464 kts 262°
2026-05-01 14:21 53.15047 5.61811 42910 ft 465 kts 262°
2026-05-01 14:21 53.14148 5.51127 42914 ft 467 kts 262°
2026-05-01 14:22 53.12773 5.35017 42903 ft 468 kts 262°
2026-05-01 14:22 53.11848 5.24315 42894 ft 466 kts 262°
2026-05-01 14:23 53.10920 5.13710 42890 ft 465 kts 262°
2026-05-01 14:23 53.09980 5.03071 42890 ft 467 kts 261°
2026-05-01 14:24 53.09020 4.92317 42896 ft 472 kts 261°
2026-05-01 14:24 53.08042 4.81478 42901 ft 473 kts 261°
2026-05-01 14:25 53.07057 4.70675 42897 ft 470 kts 261°
2026-05-01 14:25 53.06075 4.60018 42893 ft 468 kts 261°
2026-05-01 14:26 53.04582 4.44021 42890 ft 467 kts 261°
2026-05-01 14:27 53.03573 4.33335 42887 ft 469 kts 261°
2026-05-01 14:27 53.02549 4.22604 42890 ft 471 kts 261°
2026-05-01 14:28 53.00990 4.06459 42891 ft 473 kts 261°
2026-05-01 14:28 52.99944 3.95766 42890 ft 471 kts 260°
2026-05-01 14:29 52.98886 3.85053 42887 ft 469 kts 260°
2026-05-01 14:30 52.96752 3.63743 42880 ft 466 kts 260°
2026-05-01 14:31 52.95128 3.47783 42882 ft 468 kts 259°
2026-05-01 14:31 52.94029 3.37116 42876 ft 469 kts 259°
2026-05-01 14:32 52.92927 3.26511 42882 ft 470 kts 259°
2026-05-01 14:32 52.92103 3.15771 42863 ft 471 kts 269°
2026-05-01 14:33 52.93002 3.05014 42871 ft 472 kts 282°
2026-05-01 14:33 52.94406 2.94401 42877 ft 471 kts 281°
2026-05-01 14:34 52.95793 2.83775 42872 ft 471 kts 281°
2026-05-01 14:34 52.97177 2.73145 42870 ft 472 kts 281°
2026-05-01 14:35 52.98552 2.62463 42865 ft 474 kts 281°
2026-05-01 14:35 52.99916 2.51817 42871 ft 474 kts 281°
2026-05-01 14:36 53.01275 2.41099 42865 ft 474 kts 280°
2026-05-01 14:36 53.02627 2.30374 42861 ft 474 kts 280°
2026-05-01 14:37 53.03967 2.19654 42851 ft 473 kts 280°
2026-05-01 14:37 53.05293 2.08963 42855 ft 472 kts 280°
2026-05-01 14:38 53.06606 1.98286 42850 ft 470 kts 279°
2026-05-01 14:38 53.07905 1.87654 42844 ft 468 kts 279°
2026-05-01 14:39 53.09192 1.77017 42842 ft 470 kts 280°
2026-05-01 14:39 53.10477 1.66318 42847 ft 473 kts 279°
2026-05-01 14:40 53.11749 1.55645 42829 ft 473 kts 279°
2026-05-01 14:40 53.13020 1.44903 42827 ft 473 kts 279°
2026-05-01 14:41 53.14281 1.34140 42819 ft 472 kts 279°
2026-05-01 14:41 53.15530 1.23398 42827 ft 471 kts 279°
2026-05-01 14:42 53.16758 1.12754 42814 ft 471 kts 279°
2026-05-01 14:42 53.17980 1.02048 42819 ft 470 kts 279°
2026-05-01 14:43 53.19198 0.91315 42800 ft 471 kts 279°
2026-05-01 14:43 53.20406 0.80564 42796 ft 472 kts 279°
2026-05-01 14:44 53.21599 0.69869 42802 ft 472 kts 279°
2026-05-01 14:44 53.23385 0.53661 42801 ft 474 kts 278°
2026-05-01 14:45 53.25154 0.37404 42800 ft 475 kts 278°
2026-05-01 14:46 53.26321 0.26553 42798 ft 474 kts 278°
2026-05-01 14:46 53.28050 0.10390 42793 ft 471 kts 278°
2026-05-01 14:47 53.29178 -0.00381 42796 ft 469 kts 278°
2026-05-01 14:48 53.30859 -0.16561 42787 ft 471 kts 278°
2026-05-01 14:48 53.32500 -0.32549 42788 ft 473 kts 278°
2026-05-01 14:49 53.34654 -0.53906 42785 ft 474 kts 278°
2026-05-01 14:50 53.36815 -0.75728 42780 ft 474 kts 278°
2026-05-01 14:51 53.38403 -0.92039 42762 ft 472 kts 277°
2026-05-01 14:52 53.39957 -1.08256 42759 ft 470 kts 277°
2026-05-01 14:53 53.41484 -1.24405 42760 ft 470 kts 277°
2026-05-01 14:53 53.42494 -1.35275 42761 ft 472 kts 277°
2026-05-01 14:54 53.43503 -1.46176 42760 ft 473 kts 277°
2026-05-01 14:54 53.44501 -1.57118 42769 ft 475 kts 277°
2026-05-01 14:55 53.45492 -1.68081 42774 ft 476 kts 277°
2026-05-01 14:55 53.46472 -1.79037 42773 ft 474 kts 277°
2026-05-01 14:56 53.47434 -1.89907 42772 ft 473 kts 277°
2026-05-01 14:56 53.48388 -2.00824 42769 ft 472 kts 276°
2026-05-01 14:57 53.49332 -2.11722 42787 ft 471 kts 276°
2026-05-01 14:57 53.50724 -2.28028 42786 ft 470 kts 276°
2026-05-01 14:58 53.51640 -2.38922 42791 ft 472 kts 276°
2026-05-01 14:58 53.52548 -2.49819 42796 ft 474 kts 276°
2026-05-01 14:59 53.53452 -2.60819 42795 ft 476 kts 276°
2026-05-01 14:59 53.53903 -2.66342 42562 ft 479 kts 276°
2026-05-01 14:59 53.54354 -2.71896 41941 ft 476 kts 275°
2026-05-01 15:00 53.55227 -2.82728 40729 ft 456 kts 275°
2026-05-01 15:00 53.55645 -2.87955 40140 ft 446 kts 275°
2026-05-01 15:00 53.56044 -2.93010 39567 ft 437 kts 274°
2026-05-01 15:01 53.56438 -2.98045 39001 ft 432 kts 274°
2026-05-01 15:01 53.56830 -3.03054 38376 ft 429 kts 274°
2026-05-01 15:01 53.57218 -3.08021 37813 ft 429 kts 274°
2026-05-01 15:01 53.57606 -3.13048 37249 ft 439 kts 274°
2026-05-01 15:02 53.58002 -3.18219 36655 ft 450 kts 274°
2026-05-01 15:02 53.58138 -3.19982 36456 ft 453 kts 274°
2026-05-01 15:02 53.58677 -3.26976 35656 ft 456 kts 274°
2026-05-01 15:02 53.59081 -3.32265 35053 ft 454 kts 273°
2026-05-01 15:03 53.59476 -3.37527 34454 ft 452 kts 273°
2026-05-01 15:03 53.59996 -3.44483 33629 ft 450 kts 273°
2026-05-01 15:03 53.60384 -3.49705 33029 ft 451 kts 273°
2026-05-01 15:03 53.60774 -3.54968 32433 ft 456 kts 273°
2026-05-01 15:04 53.61038 -3.58562 32025 ft 459 kts 273°
2026-05-01 15:04 53.61468 -3.63863 31440 ft 466 kts 276°
2026-05-01 15:04 53.62314 -3.69180 30805 ft 475 kts 285°
2026-05-01 15:04 53.63533 -3.74370 30168 ft 477 kts 288°
2026-05-01 15:05 53.64785 -3.79540 29500 ft 473 kts 288°
2026-05-01 15:05 53.66006 -3.84648 28878 ft 467 kts 288°
2026-05-01 15:05 53.67204 -3.89706 28268 ft 461 kts 288°
2026-05-01 15:05 53.68389 -3.94695 27665 ft 456 kts 288°
2026-05-01 15:06 53.69565 -3.99630 27068 ft 451 kts 288°
2026-05-01 15:06 53.70717 -4.04530 26479 ft 447 kts 286°
2026-05-01 15:06 53.71543 -4.09527 25885 ft 438 kts 277°
2026-05-01 15:06 53.71913 -4.14584 25315 ft 431 kts 269°
2026-05-01 15:07 53.72091 -4.19635 24757 ft 429 kts 268°
2026-05-01 15:07 53.72277 -4.24589 24194 ft 427 kts 269°
2026-05-01 15:07 53.72474 -4.29634 23612 ft 423 kts 269°
2026-05-01 15:07 53.72655 -4.34504 23030 ft 417 kts 268°
2026-05-01 15:08 53.72829 -4.39348 22489 ft 411 kts 268°
2026-05-01 15:08 53.73001 -4.44157 21949 ft 409 kts 268°
2026-05-01 15:08 53.73172 -4.48935 21413 ft 407 kts 269°
2026-05-01 15:08 53.73342 -4.53697 20877 ft 405 kts 269°
2026-05-01 15:09 53.73507 -4.58430 20345 ft 402 kts 269°
2026-05-01 15:09 53.73670 -4.63128 19808 ft 399 kts 269°
2026-05-01 15:09 53.73829 -4.67791 19285 ft 395 kts 269°
2026-05-01 15:09 53.73984 -4.72407 18770 ft 393 kts 268°
2026-05-01 15:10 53.74137 -4.76998 18227 ft 390 kts 269°
2026-05-01 15:10 53.74436 -4.86046 17190 ft 382 kts 269°
2026-05-01 15:10 53.74582 -4.90511 16689 ft 378 kts 269°
2026-05-01 15:11 53.74723 -4.94882 16201 ft 376 kts 269°
2026-05-01 15:11 53.75002 -5.03658 15207 ft 372 kts 269°
2026-05-01 15:11 53.75138 -5.08013 14722 ft 370 kts 269°
2026-05-01 15:12 53.75172 -5.12330 14222 ft 365 kts 262°
2026-05-01 15:12 53.74028 -5.20463 13244 ft 350 kts 247°
2026-05-01 15:12 53.73236 -5.24328 12793 ft 345 kts 247°
2026-05-01 15:13 53.71086 -5.34968 11519 ft 293 kts 246°
2026-05-01 15:14 53.69806 -5.41214 10780 ft 273 kts 246°
2026-05-01 15:14 53.69189 -5.44229 10425 ft 272 kts 246°
2026-05-01 15:14 53.68131 -5.50419 9687 ft 281 kts 258°
2026-05-01 15:15 53.66540 -5.55673 9012 ft 245 kts 212°
2026-05-01 15:15 53.63790 -5.58619 8432 ft 229 kts 216°
2026-05-01 15:16 53.61475 -5.62206 7833 ft 224 kts 221°
2026-05-01 15:16 53.59180 -5.65750 7244 ft 224 kts 220°
2026-05-01 15:17 53.56888 -5.69265 6693 ft 222 kts 220°
2026-05-01 15:18 53.53483 -5.74485 5833 ft 222 kts 220°
2026-05-01 15:18 53.52342 -5.76232 5557 ft 221 kts 220°
2026-05-01 15:19 53.48980 -5.81369 4715 ft 213 kts 221°
2026-05-01 15:19 53.46774 -5.84732 4156 ft 211 kts 222°
2026-05-01 15:19 53.45705 -5.86358 3844 ft 204 kts 223°
2026-05-01 15:20 53.43677 -5.89446 3250 ft 194 kts 223°
2026-05-01 15:20 53.42682 -5.90957 3037 ft 184 kts 223°
2026-05-01 15:20 53.41805 -5.92288 2997 ft 158 kts 223°
2026-05-01 15:21 53.41101 -5.93567 2984 ft 143 kts 236°
2026-05-01 15:21 53.40654 -5.95071 3002 ft 146 kts 249°
2026-05-01 15:21 53.40553 -5.96780 3002 ft 153 kts 271°
2026-05-01 15:21 53.40593 -5.98504 3066 ft 137 kts 271°
2026-05-01 15:22 53.40737 -6.01692 2952 ft 137 kts 272°
2026-05-01 15:22 53.40865 -6.03239 2778 ft 132 kts 275°
2026-05-01 15:22 53.40920 -6.04813 2618 ft 136 kts 271°
2026-05-01 15:23 53.41058 -6.06293 2402 ft 132 kts 267°
2026-05-01 15:23 53.41081 -6.07864 2275 ft 133 kts 274°
2026-05-01 15:23 53.41176 -6.09358 2085 ft 131 kts 266°
2026-05-01 15:23 53.41247 -6.10887 1916 ft 133 kts 271°
2026-05-01 15:24 53.41328 -6.12432 1730 ft 134 kts 270°
2026-05-01 15:24 53.41443 -6.13980 1541 ft 133 kts 271°
2026-05-01 15:24 53.41512 -6.15495 1361 ft 126 kts 269°
2026-05-01 15:24 53.41586 -6.16923 1183 ft 120 kts 267°
2026-05-01 15:25 53.41650 -6.18305 1032 ft 118 kts 267°
2026-05-01 15:25 53.41731 -6.19686 863 ft 119 kts 274°
2026-05-01 15:25 53.41788 -6.21052 686 ft 117 kts 273°
2026-05-01 15:25 53.41891 -6.22401 581 ft 114 kts 273°
2026-05-01 15:26 53.41956 -6.23689 380 ft 113 kts 272°
2026-05-01 15:26 53.42032 -6.24958 292 ft 106 kts 271°
2026-05-01 15:26 53.42093 -6.26186 230 ft 99 kts 268°
2026-05-01 15:26 53.42122 -6.27049 227 ft 50 kts 275°
2026-05-01 15:27 53.42153 -6.27550 227 ft 42 kts 281°
2026-05-01 15:27 53.42231 -6.27942 227 ft 25 kts 297°
2026-05-01 15:27 53.42296 -6.28094 221 ft 14 kts 308°
2026-05-01 15:28 53.42355 -6.27891 220 ft 23 kts 96°
2026-05-01 15:28 53.42333 -6.27508 219 ft 37 kts 96°
2026-05-01 15:28 53.42311 -6.27080 219 ft 37 kts 95°
2026-05-01 15:29 53.42277 -6.26465 220 ft 18 kts 95°
2026-05-01 15:29 53.42266 -6.26228 219 ft 16 kts 79°
2026-05-01 15:29 53.42442 -6.25875 219 ft 14 kts 15°
2026-05-01 15:30 53.42508 -6.26099 219 ft 13 kts 275°
2026-05-01 15:31 53.42591 -6.26191 219 ft 0 kts
2026-05-01 15:32 53.42590 -6.26191 219 ft 0 kts